Simultaneous Nadir Overpasses (SNOs) Predictions

Prediction of SNOs between NOAA-19 and TERRA Satellite Orbit:

Table of predicted SNOs for the next 14.0 days since TLE Epoch: 10/28/2022
Index Date (NOAA-19) Time (NOAA-19) Lat,Lon (NOAA-19) SZA (NOAA-19 ) Date (TERRA) Time (TERRA) Lat,Lon (TERRA) SZA (TERRA ) Distance(km) Time Diff (sec)
1 10/29/2022 00:34:17 80.89,-152.96 96.27 10/29/2022 00:35:20 80.88,-153.14 96.27 3.20 63
2 10/29/2022 01:25:10 -80.88, 14.82 83.68 10/29/2022 01:24:43 -80.89, 14.66 83.70 3.01 27
3 10/31/2022 05:16:05 80.89, 136.90 97.02 10/31/2022 05:15:46 80.88, 136.73 96.99 3.09 19
4 11/02/2022 09:06:49 -80.89,-100.88 82.30 11/02/2022 09:06:49 -80.90,-100.86 82.30 0.82 0
5 11/04/2022 12:57:43 80.89, 21.34 98.37 11/04/2022 12:57:51 80.89, 21.30 98.37 0.70 8
6 11/06/2022 16:48:27 -80.89, 143.66 80.99 11/06/2022 16:48:54 -80.90, 143.62 80.98 1.09 27
7 11/06/2022 17:39:25 80.86, -46.72 99.24 11/06/2022 17:38:12 81.01, -47.35 99.26 19.74 73
8 11/08/2022 20:39:20 80.89, -94.06 99.64 11/08/2022 20:39:55 80.90, -94.12 99.66 1.48 35
9 11/08/2022 21:30:15 -80.89, 73.44 80.33 11/08/2022 21:29:19 -80.90, 73.52 80.34 1.82 56
10 11/11/2022 00:30:05 -80.90, 28.06 79.78 11/11/2022 00:30:58 -80.90, 28.09 79.75 0.75 53



Historial Predications of SNOs between NOAA-19 and TERRA
